Location: Bushey
(51.6333°N, 0.3667°W)
Time: 20:00:15
(UTC+00:00)

SL-08 R/B - Pass Details

Date: 03 March 2021
Orbit: 949 x 1019 km, 82.9° (Epoch: 15 April)

Event Time Altitude Azimuth Distance (km) Brightness Sun altitude
Exits shadow 20:11:53 18° 171° (S) 2,257 6.1 -23.2°
Maximum altitude 20:16:45 65° 94° (E) 1,113 4.5 -23.9°
Drops below altitude 10° 20:23:10 10° 14° (NNE) 2,819 7.0 -24.8°
Sets 20:25:45 0° 12° (NNE) 3,772 7.7 -25.2°
